Time,TemperatureF,DewpointF,PressureIn,WindDirection,WindDirectionDegrees,WindSpeedMPH,WindSpeedGustMPH,Humidity,HourlyPrecipIn,Conditions,Clouds,dailyrainin,SoftwareType,DateUTC
2013-09-27 00:00:00,34.5,33.0,30.04,NW,308,0.0,0.0,92,0.00,,,0.55,weatherlink.com 1.10,2013-09-27 06:00:00,
2013-09-27 00:15:00,34.1,32.0,30.04,NW,309,0.0,0.0,92,0.00,,,0.00,weatherlink.com 1.10,2013-09-27 06:15:00,
2013-09-27 00:30:00,33.5,32.0,30.05,NW,304,0.0,0.0,92,0.00,,,0.00,weatherlink.com 1.10,2013-09-27 06:30:00,
2013-09-27 00:45:00,32.9,31.0,30.06,NW,304,0.0,0.0,92,0.00,,,0.00,weatherlink.com 1.10,2013-09-27 06:45:00,
2013-09-27 01:00:00,31.7,29.0,30.06,NW,304,0.0,0.0,91,0.00,,,0.00,weatherlink.com 1.10,2013-09-27 07:00:00,
2013-09-27 01:15:00,32.4,31.0,30.05,West,273,2.0,4.0,94,0.00,,,0.00,weatherlink.com 1.10,2013-09-27 07:15:00,
2013-09-27 01:30:00,32.6,31.0,30.06,WNW,284,0.0,3.0,93,0.00,,,0.00,weatherlink.com 1.10,2013-09-27 07:30:00,
2013-09-27 01:45:00,32.5,31.0,30.05,WNW,284,0.0,0.0,93,0.00,,,0.00,weatherlink.com 1.10,2013-09-27 07:45:00,
2013-09-27 02:00:00,32.4,30.0,30.05,WNW,290,2.0,5.0,92,0.00,,,0.00,weatherlink.com 1.10,2013-09-27 08:00:00,
2013-09-27 02:15:00,32.1,30.0,30.05,WNW,288,0.0,1.0,92,0.00,,,0.00,weatherlink.com 1.10,2013-09-27 08:15:00,
2013-09-27 02:30:00,32.4,31.0,30.05,West,267,3.0,3.0,93,0.00,,,0.00,weatherlink.com 1.10,2013-09-27 08:30:00,
2013-09-27 02:45:00,32.1,30.0,30.05,West,275,4.0,4.0,92,0.00,,,0.00,weatherlink.com 1.10,2013-09-27 08:45:00,
2013-09-27 03:00:00,31.9,30.0,30.04,West,279,0.0,1.0,93,0.00,,,0.00,weatherlink.com 1.10,2013-09-27 09:00:00,
2013-09-27 03:15:00,31.7,30.0,30.04,West,279,1.0,2.0,93,0.00,,,0.00,weatherlink.com 1.10,2013-09-27 09:15:00,
2013-09-27 03:30:00,31.8,30.0,30.04,West,281,3.0,5.0,93,0.00,,,0.00,weatherlink.com 1.10,2013-09-27 09:30:00,
2013-09-27 03:45:00,32.0,30.0,30.04,West,277,1.0,5.0,93,0.00,,,0.00,weatherlink.com 1.10,2013-09-27 09:45:00,
2013-09-27 04:00:00,32.3,31.0,30.04,West,263,2.0,4.0,93,0.00,,,0.00,weatherlink.com 1.10,2013-09-27 10:00:00,
2013-09-27 04:15:00,32.9,31.0,30.04,West,262,4.0,4.0,92,0.00,,,0.00,weatherlink.com 1.10,2013-09-27 10:15:00,
2013-09-27 04:30:00,32.9,31.0,30.04,West,259,1.0,4.0,91,0.00,,,0.00,weatherlink.com 1.10,2013-09-27 10:30:00,
2013-09-27 04:45:00,32.9,31.0,30.03,WSW,258,1.0,3.0,91,0.00,,,0.00,weatherlink.com 1.10,2013-09-27 10:45:00,
2013-09-27 05:00:00,32.9,31.0,30.03,WSW,248,3.0,4.0,91,0.00,,,0.00,weatherlink.com 1.10,2013-09-27 11:00:00,
2013-09-27 05:15:00,32.6,30.0,30.03,WSW,241,6.0,6.0,90,0.01,,,0.01,weatherlink.com 1.10,2013-09-27 11:15:00,
2013-09-27 05:30:00,32.5,30.0,30.02,SW,225,0.0,4.0,91,0.01,,,0.01,weatherlink.com 1.10,2013-09-27 11:30:00,
2013-09-27 05:45:00,32.2,30.0,30.02,South,182,0.0,1.0,92,0.01,,,0.01,weatherlink.com 1.10,2013-09-27 11:45:00,
2013-09-27 06:00:00,33.9,32.0,30.02,SSE,165,1.0,3.0,93,0.01,,,0.01,weatherlink.com 1.10,2013-09-27 12:00:00,
2013-09-27 06:15:00,35.4,32.0,30.01,SSE,155,0.0,6.0,88,0.00,,,0.01,weatherlink.com 1.10,2013-09-27 12:15:00,
2013-09-27 06:30:00,36.8,33.0,30.01,SSE,159,2.0,10.0,85,0.00,,,0.01,weatherlink.com 1.10,2013-09-27 12:30:00,
2013-09-27 06:45:00,37.1,33.0,30.01,SSE,164,1.0,7.0,84,0.00,,,0.01,weatherlink.com 1.10,2013-09-27 12:45:00,
2013-09-27 07:00:00,37.1,33.0,30.01,SSE,159,0.0,5.0,84,0.00,,,0.01,weatherlink.com 1.10,2013-09-27 13:00:00,
2013-09-27 07:15:00,37.4,32.0,30.01,WNW,287,2.0,8.0,82,0.00,,,0.01,weatherlink.com 1.10,2013-09-27 13:15:00,
2013-09-27 07:30:00,37.8,32.0,30.02,South,175,0.0,8.0,80,0.00,,,0.01,weatherlink.com 1.10,2013-09-27 13:30:00,
2013-09-27 07:45:00,38.0,32.0,30.02,SSE,163,4.0,10.0,79,0.00,,,0.01,weatherlink.com 1.10,2013-09-27 13:45:00,
2013-09-27 08:00:00,37.5,32.0,30.02,SW,222,0.0,5.0,81,0.00,,,0.01,weatherlink.com 1.10,2013-09-27 14:00:00,
2013-09-27 08:15:00,37.4,32.0,30.02,SSE,159,2.0,4.0,82,0.00,,,0.01,weatherlink.com 1.10,2013-09-27 14:15:00,
2013-09-27 08:30:00,39.6,33.0,30.01,SSE,159,0.0,12.0,78,0.00,,,0.01,weatherlink.com 1.10,2013-09-27 14:30:00,
2013-09-27 08:46:00,40.6,34.0,30.00,South,176,9.0,10.0,76,0.00,,,0.01,weatherlink.com 1.10,2013-09-27 14:46:00,
2013-09-27 09:01:00,41.9,35.0,30.00,SSE,157,9.0,9.0,75,0.00,,,0.01,weatherlink.com 1.10,2013-09-27 15:01:00,
2013-09-27 09:16:00,42.5,34.0,30.00,SSE,151,1.0,11.0,72,0.00,,,0.01,weatherlink.com 1.10,2013-09-27 15:16:00,
2013-09-27 09:31:00,43.2,35.0,29.99,SSE,148,6.0,16.0,72,0.00,,,0.01,weatherlink.com 1.10,2013-09-27 15:31:00,
2013-09-27 09:46:00,43.8,35.0,29.99,SSE,150,1.0,13.0,71,0.00,,,0.01,weatherlink.com 1.10,2013-09-27 15:46:00,
2013-09-27 10:01:00,44.3,35.0,29.98,SSE,153,3.0,17.0,70,0.00,,,0.01,weatherlink.com 1.10,2013-09-27 16:01:00,
2013-09-27 10:16:00,44.7,35.0,29.98,SSE,161,4.0,17.0,69,0.00,,,0.01,weatherlink.com 1.10,2013-09-27 16:16:00,
2013-09-27 10:31:00,45.7,36.0,29.97,ESE,121,7.0,13.0,70,0.00,,,0.01,weatherlink.com 1.10,2013-09-27 16:31:00,
2013-09-27 10:46:00,46.6,36.0,29.97,SSE,147,5.0,15.0,66,0.00,,,0.01,weatherlink.com 1.10,2013-09-27 16:46:00,
2013-09-27 11:01:00,47.5,36.0,29.96,SSE,153,14.0,15.0,64,0.00,,,0.01,weatherlink.com 1.10,2013-09-27 17:01:00,
2013-09-27 11:16:00,48.1,36.0,29.96,SE,132,7.0,24.0,63,0.00,,,0.01,weatherlink.com 1.10,2013-09-27 17:16:00,
2013-09-27 11:31:00,48.9,36.0,29.95,ESE,120,13.0,21.0,62,0.00,,,0.01,weatherlink.com 1.10,2013-09-27 17:31:00,
2013-09-27 11:46:00,50.0,37.0,29.95,SSE,161,3.0,13.0,61,0.00,,,0.01,weatherlink.com 1.10,2013-09-27 17:46:00,
2013-09-27 12:01:00,50.3,38.0,29.95,SSE,159,3.0,16.0,62,0.00,,,0.01,weatherlink.com 1.10,2013-09-27 18:01:00,
2013-09-27 12:16:00,50.9,37.0,29.94,SSE,150,4.0,19.0,60,0.00,,,0.01,weatherlink.com 1.10,2013-09-27 18:16:00,
2013-09-27 12:31:00,51.8,37.0,29.94,SE,128,4.0,13.0,58,0.00,,,0.01,weatherlink.com 1.10,2013-09-27 18:31:00,
2013-09-27 12:46:00,52.4,37.0,29.94,South,180,0.0,17.0,56,0.00,,,0.01,weatherlink.com 1.10,2013-09-27 18:46:00,
2013-09-27 13:01:00,53.7,33.0,29.93,West,261,6.0,7.0,46,0.00,,,0.01,weatherlink.com 1.10,2013-09-27 19:01:00,
2013-09-27 13:16:00,54.3,35.0,29.93,SW,233,9.0,9.0,48,0.00,,,0.01,weatherlink.com 1.10,2013-09-27 19:16:00,
2013-09-27 13:31:00,54.2,33.0,29.92,WSW,250,7.0,17.0,44,0.00,,,0.01,weatherlink.com 1.10,2013-09-27 19:31:00,
2013-09-27 13:46:00,53.8,32.0,29.92,WSW,256,0.0,9.0,44,0.00,,,0.01,weatherlink.com 1.10,2013-09-27 19:46:00,
2013-09-27 14:02:00,54.8,32.0,29.91,West,273,7.0,13.0,42,0.00,,,0.01,weatherlink.com 1.10,2013-09-27 20:02:00,
2013-09-27 14:17:00,53.6,33.0,29.91,West,269,5.0,13.0,45,0.00,,,0.01,weatherlink.com 1.10,2013-09-27 20:17:00,
2013-09-27 14:32:00,53.8,32.0,29.90,WSW,252,0.0,13.0,44,0.00,,,0.01,weatherlink.com 1.10,2013-09-27 20:32:00,
2013-09-27 14:47:00,54.5,33.0,29.91,West,269,14.0,14.0,45,0.00,,,0.01,weatherlink.com 1.10,2013-09-27 20:47:00,
2013-09-27 15:02:00,54.1,34.0,29.90,SSE,163,3.0,16.0,46,0.00,,,0.01,weatherlink.com 1.10,2013-09-27 21:02:00,
2013-09-27 15:17:00,53.1,32.0,29.90,West,281,9.0,16.0,45,0.00,,,0.01,weatherlink.com 1.10,2013-09-27 21:17:00,
2013-09-27 15:32:00,53.2,32.0,29.90,WNW,290,9.0,14.0,45,0.00,,,0.01,weatherlink.com 1.10,2013-09-27 21:32:00,
2013-09-27 15:47:00,52.1,32.0,29.90,WSW,244,1.0,9.0,47,0.00,,,0.01,weatherlink.com 1.10,2013-09-27 21:47:00,
2013-09-27 16:02:00,52.2,33.0,29.90,SW,215,1.0,5.0,48,0.00,,,0.01,weatherlink.com 1.10,2013-09-27 22:02:00,
2013-09-27 16:17:00,52.7,32.0,29.89,West,260,7.0,11.0,45,0.00,,,0.01,weatherlink.com 1.10,2013-09-27 22:17:00,
2013-09-27 16:32:00,52.3,31.0,29.89,WSW,250,1.0,15.0,45,0.00,,,0.01,weatherlink.com 1.10,2013-09-27 22:32:00,
2013-09-27 16:47:00,51.9,32.0,29.89,SW,216,8.0,17.0,47,0.00,,,0.01,weatherlink.com 1.10,2013-09-27 22:47:00,
2013-09-27 17:02:00,52.3,32.0,29.90,WSW,250,8.0,11.0,46,0.00,,,0.01,weatherlink.com 1.10,2013-09-27 23:02:00,
2013-09-27 17:17:00,53.2,30.0,29.90,WSW,252,2.0,9.0,41,0.00,,,0.01,weatherlink.com 1.10,2013-09-27 23:17:00,
2013-09-27 17:32:00,52.4,31.0,29.90,West,275,1.0,2.0,45,0.00,,,0.01,weatherlink.com 1.10,2013-09-27 23:32:00,
2013-09-27 17:47:00,51.7,32.0,29.90,West,263,3.0,3.0,47,0.00,,,0.01,weatherlink.com 1.10,2013-09-27 23:47:00,
2013-09-27 18:02:00,51.3,31.0,29.90,West,266,0.0,1.0,47,0.00,,,0.01,weatherlink.com 1.10,2013-09-28 00:02:00,
2013-09-27 18:17:00,51.3,32.0,29.90,South,175,0.0,5.0,48,0.00,,,0.01,weatherlink.com 1.10,2013-09-28 00:17:00,
2013-09-27 18:32:00,51.0,32.0,29.90,WSW,244,0.0,6.0,49,0.00,,,0.01,weatherlink.com 1.10,2013-09-28 00:32:00,
2013-09-27 18:47:00,50.9,32.0,29.91,SSW,198,1.0,7.0,48,0.00,,,0.01,weatherlink.com 1.10,2013-09-28 00:47:00,
2013-09-27 19:02:00,50.6,32.0,29.91,WSW,241,1.0,2.0,49,0.00,,,0.01,weatherlink.com 1.10,2013-09-28 01:02:00,
2013-09-27 19:17:00,50.4,32.0,29.91,SSE,154,2.0,9.0,49,0.00,,,0.01,weatherlink.com 1.10,2013-09-28 01:17:00,
2013-09-27 19:32:00,50.4,32.0,29.91,SW,234,1.0,10.0,50,0.00,,,0.01,weatherlink.com 1.10,2013-09-28 01:32:00,
2013-09-27 19:47:00,50.3,33.0,29.91,SSE,161,1.0,9.0,51,0.00,,,0.01,weatherlink.com 1.10,2013-09-28 01:47:00,
2013-09-27 20:02:00,50.0,33.0,29.91,South,178,1.0,6.0,52,0.00,,,0.01,weatherlink.com 1.10,2013-09-28 02:02:00,
2013-09-27 20:17:00,49.8,33.0,29.91,South,188,1.0,7.0,52,0.00,,,0.01,weatherlink.com 1.10,2013-09-28 02:17:00,
2013-09-27 20:32:00,49.7,33.0,29.91,South,173,2.0,5.0,52,0.00,,,0.01,weatherlink.com 1.10,2013-09-28 02:32:00,
2013-09-27 20:47:00,49.6,32.0,29.91,WSW,248,10.0,10.0,52,0.00,,,0.01,weatherlink.com 1.10,2013-09-28 02:47:00,
2013-09-27 21:02:00,49.3,33.0,29.91,South,178,0.0,4.0,53,0.00,,,0.01,weatherlink.com 1.10,2013-09-28 03:02:00,
2013-09-27 21:17:00,49.2,33.0,29.91,SSE,168,5.0,7.0,54,0.00,,,0.01,weatherlink.com 1.10,2013-09-28 03:17:00,
2013-09-27 21:32:00,49.2,33.0,29.91,South,181,1.0,4.0,53,0.00,,,0.01,weatherlink.com 1.10,2013-09-28 03:32:00,
2013-09-27 21:47:00,49.2,33.0,29.91,South,171,2.0,12.0,53,0.00,,,0.01,weatherlink.com 1.10,2013-09-28 03:47:00,
2013-09-27 22:02:00,48.9,33.0,29.91,SW,229,0.0,13.0,54,0.00,,,0.01,weatherlink.com 1.10,2013-09-28 04:02:00,
2013-09-27 22:17:00,48.6,33.0,29.91,SW,226,0.0,6.0,55,0.00,,,0.01,weatherlink.com 1.10,2013-09-28 04:17:00,
2013-09-27 22:32:00,48.2,33.0,29.90,SSE,157,8.0,9.0,57,0.00,,,0.01,weatherlink.com 1.10,2013-09-28 04:32:00,
2013-09-27 22:47:00,48.0,34.0,29.90,WSW,242,0.0,8.0,58,0.00,,,0.01,weatherlink.com 1.10,2013-09-28 04:47:00,
2013-09-27 23:02:00,47.6,34.0,29.90,South,176,1.0,6.0,60,0.00,,,0.01,weatherlink.com 1.10,2013-09-28 05:02:00,
2013-09-27 23:17:00,47.5,35.0,29.90,SSE,167,3.0,9.0,62,0.00,,,0.01,weatherlink.com 1.10,2013-09-28 05:17:00,
2013-09-27 23:32:00,47.3,35.0,29.89,SSE,161,8.0,13.0,62,0.00,,,0.01,weatherlink.com 1.10,2013-09-28 05:32:00,
2013-09-27 23:47:00,47.2,35.0,29.87,South,176,15.0,20.0,63,0.00,,,0.01,weatherlink.com 1.10,2013-09-28 05:47:00,